This is the latest recevied weather packets stored in our database for station/object K4JOZ. If no packets are shown the sender has not sent any weather packets the latest 10 day(s).
| Time | Temp. | Humidity | Pressure | Rain* | Wind** | Luminosity | Snow |
|---|---|---|---|---|---|---|---|
| 1777939669 | 22.78° C | 49% | 1010.2 hPa | 0 mm | - | - | - |
| 1777938769 | 23.33° C | 44% | 1010 hPa | 0 mm | - | - | - |
| 1777937869 | 23.33° C | 45% | 1010.1 hPa | 0 mm | - | - | - |
| 1777936969 | 23.33° C | 44% | 1010 hPa | 0 mm | - | - | - |
| 1777936069 | 23.89° C | 43% | 1010.2 hPa | 0 mm | - | - | - |
| 1777935169 | 24.44° C | 42% | 1010.2 hPa | 0 mm | - | - | - |
| 1777934269 | 24.44° C | 42% | 1010.2 hPa | 0 mm | - | - | - |
| 1777933369 | 24.44° C | 42% | 1010.1 hPa | 0 mm | - | - | - |
| 1777932469 | 24.44° C | 42% | 1010.1 hPa | 0 mm | - | - | - |
| 1777931569 | 24.44° C | 45% | 1010.2 hPa | 0 mm | - | - | - |
| 1777930669 | 24.44° C | 45% | 1010.2 hPa | 0 mm | - | - | - |
| 1777929769 | 24.44° C | 45% | 1010.3 hPa | 0 mm | - | - | - |
| 1777928869 | 25° C | 46% | 1010.4 hPa | 0 mm | - | - | - |
| 1777927969 | 24.44° C | 46% | 1010.6 hPa | 0 mm | - | - | - |
| 1777927069 | 23.89° C | 47% | 1010.7 hPa | 0 mm | - | - | - |
| 1777926169 | 23.89° C | 46% | 1010.9 hPa | 0 mm | - | - | - |
| 1777925269 | 23.89° C | 51% | 1011.1 hPa | 0 mm | - | - | - |
| 1777924369 | 23.33° C | 49% | 1011.2 hPa | 0 mm | - | - | - |
| 1777923469 | 23.33° C | 52% | 1011.7 hPa | 0 mm | - | - | - |
| 1777922569 | 23.33° C | 52% | 1012 hPa | 0 mm | - | - | - |
| 1777921669 | 22.78° C | 55% | 1012.3 hPa | 0 mm | - | - | - |
| 1777920769 | 22.22° C | 52% | 1012.6 hPa | 0 mm | - | - | - |
| 1777919900 | 22.22° C | 52% | 1012.9 hPa | 0 mm | - | - | - |
| 1777919869 | 22.22° C | 52% | 1012.9 hPa | 0 mm | - | - | - |
| 1777918969 | 21.67° C | 56% | 1013.1 hPa | 0 mm | - | - | - |
* Rain latest hour (hover to see other rain measurements)
** Current wind speed in m/s (hover to see current wind gust speed)